When you browse on this site, cookies collect data to enhance your experience and personalize the content and advertising you see.
Visit our Privacy Policy to learn more. By continuing to use the site, you agree to this use of cookies and data.
  • în România
  • Lista ţărilor
  • Pe 7 zile
  • Temperatura apei
  • Hartă satelitară
  • Meteo pe hartă
  • Widget-uri
  • user-avatar
    Intrare

    Meteo pe oră la Grazhdanskoe

    Astăzi, 16 Ianuarie, Miercuri

    Timp Temperatura Precipitaţii Vânt Presiune Umiditate
    00:00 0°C° 0 mm 3 m/s 715 mmHg 74%
    01:00 +2°C° 0 mm 2 m/s 715 mmHg 71%
    02:00 +2°C° 0 mm 2 m/s 715 mmHg 68%
    03:00 +1°C° 0 mm 0 m/s 714 mmHg 73%
    04:00 +3°C° 0 mm 1 m/s 714 mmHg 69%
    05:00 +4°C° 0 mm 1 m/s 714 mmHg 65%
    06:00 +5°C° 0 mm 1 m/s 714 mmHg 61%
    07:00 +5°C° 0 mm 1 m/s 714 mmHg 58%
    08:00 +6°C° 0 mm 1 m/s 714 mmHg 56%
    09:00 +7°C° 0 mm 1 m/s 714 mmHg 52%
    10:00 +7°C° 0 mm 3 m/s 715 mmHg 55%
    11:00 +6°C° 0 mm 4 m/s 716 mmHg 58%
    12:00 +7°C° 0 mm 6 m/s 716 mmHg 62%
    13:00 +4°C° 0 mm 6 m/s 717 mmHg 68%
    14:00 +2°C° 0 mm 7 m/s 718 mmHg 74%
    15:00 -1°C° 0 mm 8 m/s 718 mmHg 82%
    16:00 -2°C° 0 mm 7 m/s 719 mmHg 82%
    17:00 -2°C° 0 mm 6 m/s 719 mmHg 82%
    18:00 -2°C° 0 mm 5 m/s 720 mmHg 82%
    19:00 -2°C° 0 mm 4 m/s 721 mmHg 82%
    20:00 -2°C° 0 mm 4 m/s 721 mmHg 82%
    21:00 -2°C° 0 mm 3 m/s 722 mmHg 82%
    22:00 -2°C° 0.1 mm 3 m/s 722 mmHg 81%
    23:00 -2°C° 0.1 mm 3 m/s 722 mmHg 80%

    Mâine, 17 Ianuarie, Joi

    Timp Temperatura Precipitaţii Vânt Presiune Umiditate
    00:00 -2°C° 0.1 mm 2 m/s 722 mmHg 79%
    01:00 -2°C° 0.1 mm 2 m/s 723 mmHg 79%
    02:00 -2°C° 0.1 mm 2 m/s 723 mmHg 80%
    03:00 0°C° 0.1 mm 1 m/s 723 mmHg 80%
    04:00 -1°C° 0.1 mm 1 m/s 724 mmHg 81%
    05:00 -1°C° 0.1 mm 1 m/s 724 mmHg 82%
    06:00 -1°C° 0.1 mm 1 m/s 725 mmHg 82%
    07:00 -1°C° 0 mm 1 m/s 725 mmHg 81%
    08:00 -1°C° 0 mm 1 m/s 726 mmHg 80%
    09:00 -1°C° 0 mm 1 m/s 726 mmHg 79%
    10:00 0°C° 0 mm 1 m/s 727 mmHg 75%
    11:00 +1°C° 0 mm 1 m/s 727 mmHg 72%
    12:00 -1°C° 0 mm 2 m/s 727 mmHg 68%
    13:00 -1°C° 0 mm 2 m/s 727 mmHg 68%
    14:00 +1°C° 0 mm 2 m/s 728 mmHg 68%
    15:00 +1°C° 0 mm 2 m/s 728 mmHg 68%
    16:00 -1°C° 0 mm 2 m/s 728 mmHg 72%
    17:00 -2°C° 0 mm 2 m/s 729 mmHg 77%
    18:00 -2°C° 0 mm 2 m/s 730 mmHg 82%
    19:00 -1°C° 0 mm 1 m/s 730 mmHg 83%
    20:00 -1°C° 0 mm 1 m/s 730 mmHg 83%
    21:00 -1°C° 0 mm 1 m/s 731 mmHg 83%
    22:00 -1°C° 0 mm 1 m/s 731 mmHg 81%
    23:00 -1°C° 0 mm 1 m/s 731 mmHg 79%

    Poimâine, 18 Ianuarie, Vineri

    Timp Temperatura Precipitaţii Vânt Presiune Umiditate
    00:00 -1°C° 0 mm 1 m/s 731 mmHg 76%
    01:00 0°C° 0 mm 1 m/s 731 mmHg 73%
    02:00 0°C° 0 mm 1 m/s 732 mmHg 69%
    03:00 0°C° 0 mm 1 m/s 732 mmHg 66%
    04:00 0°C° 0 mm 1 m/s 732 mmHg 63%
    05:00 0°C° 0 mm 1 m/s 732 mmHg 60%
    06:00 0°C° 0 mm 1 m/s 732 mmHg 57%
    07:00 0°C° 0 mm 1 m/s 732 mmHg 54%
    08:00 +1°C° 0 mm 1 m/s 732 mmHg 51%
    09:00 +1°C° 0 mm 1 m/s 733 mmHg 48%
    10:00 +3°C° 0 mm 1 m/s 732 mmHg 45%
    11:00 +3°C° 0 mm 0 m/s 732 mmHg 41%
    12:00 +4°C° 0 mm 0 m/s 732 mmHg 38%
    13:00 +4°C° 0 mm 0 m/s 732 mmHg 40%
    14:00 +5°C° 0 mm 1 m/s 731 mmHg 42%
    15:00 +5°C° 0 mm 1 m/s 731 mmHg 45%
    16:00 +4°C° 0 mm 1 m/s 731 mmHg 50%
    17:00 +3°C° 0 mm 1 m/s 732 mmHg 54%
    18:00 +1°C° 0 mm 1 m/s 732 mmHg 59%
    19:00 +1°C° 0 mm 1 m/s 732 mmHg 58%
    20:00 +1°C° 0 mm 1 m/s 732 mmHg 58%
    21:00 +1°C° 0 mm 1 m/s 732 mmHg 57%
    22:00 +1°C° 0 mm 1 m/s 732 mmHg 55%
    23:00 +1°C° 0 mm 1 m/s 732 mmHg 53%

    19 Ianuarie, Sâmbătă

    Timp Temperatura Precipitaţii Vânt Presiune Umiditate
    00:00 +1°C° 0 mm 1 m/s 731 mmHg 51%
    01:00 +1°C° 0 mm 1 m/s 731 mmHg 49%
    02:00 +1°C° 0 mm 1 m/s 731 mmHg 47%
    03:00 +1°C° 0 mm 1 m/s 731 mmHg 45%
    04:00 +1°C° 0 mm 1 m/s 731 mmHg 43%
    05:00 +1°C° 0 mm 1 m/s 731 mmHg 41%
    06:00 +1°C° 0 mm 1 m/s 731 mmHg 39%
    07:00 +2°C° 0 mm 1 m/s 731 mmHg 37%
    08:00 +2°C° 0 mm 1 m/s 731 mmHg 35%
    09:00 +3°C° 0 mm 1 m/s 731 mmHg 33%
    10:00 +4°C° 0 mm 1 m/s 731 mmHg 30%
    11:00 +6°C° 0 mm 1 m/s 730 mmHg 28%
    12:00 +7°C° 0 mm 1 m/s 730 mmHg 26%
    13:00 +7°C° 0 mm 1 m/s 730 mmHg 29%
    14:00 +6°C° 0 mm 0 m/s 730 mmHg 32%
    15:00 +6°C° 0 mm 0 m/s 730 mmHg 35%
    16:00 +5°C° 0 mm 0 m/s 730 mmHg 36%
    17:00 +4°C° 0 mm 0 m/s 730 mmHg 36%
    18:00 +4°C° 0 mm 1 m/s 730 mmHg 36%
    19:00 +4°C° 0 mm 1 m/s 730 mmHg 36%
    20:00 +3°C° 0 mm 1 m/s 731 mmHg 37%
    21:00 +3°C° 0 mm 1 m/s 731 mmHg 37%
    22:00 +3°C° 0 mm 1 m/s 731 mmHg 37%
    23:00 +3°C° 0 mm 1 m/s 731 mmHg 37%

    20 Ianuarie, Duminică

    Timp Temperatura Precipitaţii Vânt Presiune Umiditate
    00:00 +3°C° 0 mm 1 m/s 731 mmHg 38%
    01:00 +3°C° 0 mm 1 m/s 731 mmHg 39%
    02:00 +3°C° 0 mm 1 m/s 731 mmHg 40%
    03:00 +3°C° 0 mm 1 m/s 731 mmHg 41%
    04:00 +3°C° 0 mm 1 m/s 731 mmHg 42%
    05:00 +3°C° 0 mm 1 m/s 731 mmHg 43%
    06:00 +3°C° 0 mm 1 m/s 731 mmHg 44%
    07:00 +2°C° 0 mm 0 m/s 731 mmHg 45%
    08:00 +2°C° 0 mm 0 m/s 732 mmHg 46%
    09:00 +3°C° 0 mm 0 m/s 732 mmHg 47%
    10:00 +3°C° 0 mm 0 m/s 732 mmHg 47%
    11:00 +4°C° 0 mm 0 m/s 732 mmHg 46%
    12:00 +6°C° 0 mm 1 m/s 732 mmHg 45%
    13:00 +6°C° 0 mm 1 m/s 731 mmHg 48%
    14:00 +6°C° 0 mm 1 m/s 731 mmHg 51%
    15:00 +6°C° 0 mm 1 m/s 731 mmHg 53%
    16:00 +5°C° 0 mm 1 m/s 731 mmHg 58%
    17:00 +4°C° 0 mm 1 m/s 732 mmHg 62%
    18:00 +2°C° 0 mm 2 m/s 732 mmHg 66%
    19:00 +2°C° 0 mm 2 m/s 732 mmHg 66%
    20:00 +1°C° 0 mm 2 m/s 732 mmHg 66%
    21:00 +1°C° 0 mm 2 m/s 732 mmHg 66%
    22:00 +1°C° 0 mm 2 m/s 732 mmHg 65%
    23:00 +1°C° 0 mm 2 m/s 732 mmHg 64%

    21 Ianuarie, Luni

    Timp Temperatura Precipitaţii Vânt Presiune Umiditate
    00:00 -1°C° 0 mm 2 m/s 731 mmHg 63%
    01:00 -1°C° 0 mm 2 m/s 731 mmHg 63%
    02:00 -1°C° 0 mm 2 m/s 731 mmHg 62%
    03:00 -1°C° 0 mm 2 m/s 731 mmHg 62%
    04:00 -1°C° 0 mm 2 m/s 731 mmHg 62%
    05:00 -1°C° 0 mm 2 m/s 730 mmHg 62%
    06:00 -1°C° 0 mm 2 m/s 730 mmHg 62%
    07:00 -1°C° 0 mm 2 m/s 730 mmHg 61%
    08:00 +1°C° 0 mm 2 m/s 730 mmHg 59%
    09:00 +1°C° 0 mm 2 m/s 730 mmHg 57%
    10:00 +3°C° 0 mm 2 m/s 729 mmHg 53%
    11:00 +4°C° 0 mm 2 m/s 729 mmHg 49%
    12:00 +5°C° 0 mm 2 m/s 728 mmHg 44%
    13:00 +5°C° 0 mm 2 m/s 728 mmHg 46%
    14:00 +6°C° 0 mm 2 m/s 727 mmHg 48%
    15:00 +6°C° 0 mm 2 m/s 727 mmHg 50%
    16:00 +5°C° 0 mm 2 m/s 727 mmHg 54%
    17:00 +3°C° 0 mm 2 m/s 727 mmHg 58%
    18:00 +3°C° 0 mm 1 m/s 727 mmHg 62%
    19:00 +3°C° 0 mm 1 m/s 727 mmHg 61%
    20:00 +3°C° 0 mm 1 m/s 727 mmHg 59%
    21:00 +4°C° 0 mm 1 m/s 727 mmHg 58%
    22:00 +4°C° 0 mm 1 m/s 727 mmHg 57%
    23:00 +4°C° 0 mm 1 m/s 727 mmHg 55%
    Arată mai mult